www.pogodaiklimat.ru

Погода и климат >> Архив погоды >> Россия >> Чукотка >> Бухта Амбарчик


АРХИВ ПОГОДЫ в Бухте Амбарчик

Время (UTC), дата Ветер
(напр.,м/с)
 
Видим.   Явления Облачность Т
(С)
Тd
(С)
f
(%)
Тe
(С)
Тes
(С)
Комфортность P
(гПа)
Po
(гПа)
Тmin
(С)
Tmax
(С)
R
(мм)
R24
(мм)
S
(см)
21 11.06 ЮЗ 6
{9}
20 км 3/0
[Ci fib]
+22.1 +2.2 27 +22 +24 комфорт 1011.6 1008.9 +12.1
03 12.06 ЮЗ 8
{14}
20 км 3/0
[Ac trans Ci fib]
+24.1 -5.1 14 +22 +24 комфорт 1009.8 1007.1
09 12.06 ЮВ 2
{11}
20 км 6/0
[Ci]
+17.4 +4.4 42 +18 +19 1009.5 1006.6 +24.4
15 12.06 Ю 6
{7}
20 км 8/0
[Ci fib]
+14.5 +1.4 41 +13 +13 1008.6 1005.8
21 12.06 ЮЗ 7
{10}
20 км 6/0
[Ac trans Ci fib]
+23.3 -3.1 17 +22 +23 комфорт 1008.3 1005.6 +13.9
03 13.06 В 4
{10}
20 км 8/5 300 м
[Cu med, cong Ac trans Ci fib]
+19.0 +1.9 32 +19 +21 1007.2 1004.5
09 13.06 Ю 7
{14}
20 км 8/6 600 м
[Sc Ac trans Ci fib]
+21.9 +3.0 29 +22 +22 комфорт 1007.2 1004.5 +25.8
15 13.06 Ю 5
{10}
20 км 6/4 600 м
[Sc Ac trans Ci fib]
+14.7 +3.8 48 +13 +13 1006.1 1003.3
21 13.06 З 4
{8}
20 км 6/3 600 м
[Sc Ac trans Ci fib]
+17.8 +8.7 55 +18 +20 1007.4 1004.7 +14.2
03 14.06 СВ 2
{10}
20 км 6/3 300 м
[Cu med, cong Ac trans Ci fib]
+16.2 +9.4 64 +16 +22 1009.0 1006.3
09 14.06 СВ 1
{5}
20 км 6/3 300 м
[Cu med, cong Ac trans Ci fib]
+19.3 +8.0 48 +21 +22 комфорт 1010.5 1007.8 +21.5
15 14.06 Ю 3
{5}
20 км 6/0
[Ac trans Ci fib]
+15.0 +6.1 55 +14 +15 1012.5 1009.7
21 14.06 ЮВ 4
{6}
20 км 6/1 600 м
[Sc Ac trans]
+22.2 +9.0 43 +24 +26 комфорт 1014.2 1011.5 +13.7
03 15.06 С 1
{6}
20 км 6/3 300 м
[Cu med, cong Ci fib]
+21.2 +8.4 44 +22 +30 комфорт 1014.7 1012.0
09 15.06 В 4
{8}
20 км 6/1 600 м
[Sc Ci fib]
+22.7 +3.8 29 +23 +23 комфорт 1014.5 1011.8 +25.5
15 15.06 Ю 2
{6}
20 км 6/4 600 м
[Sc Ci fib]
+13.1 +7.5 69 +12 +13 1014.1 1011.0
21 15.06 С 2
{8}
20 км 6/4 600 м
[Sc Ci fib]
+21.4 +9.3 46 +23 +26 комфорт 1014.3 1011.6 +13.1
03 16.06 СВ 2
{7}
20 км 6/3 300 м
[Cu med, cong Ci fib]
+20.6 +10.1 51 +23 +29 комфорт 1014.2 1011.5
09 16.06 Ю 4
{7}
20 км 6/0
[Ac trans Ci fib]
+25.1 +4.8 27 +25 +25 комфорт 1013.5 1010.8 +26.9
15 16.06 Ю 6
{7}
20 км 4/0
[Ac trans Ci fib]
+17.4 +6.5 49 +17 +17 1013.5 1010.8
21 16.06 ЮВ 4
{7}
20 км 4/0
[Ci fib]
+24.2 +7.3 34 +24 +28 комфорт 1013.6 1010.9 +15.8
03 17.06 С 2
{5}
20 км 8/1 300 м
[Cu med, cong Ac trans Ci fib]
+19.1 +10.1 56 +20 +26 1013.6 1010.9
09 17.06 Ю 5
{8}
20 км 9/0
[Ac trans Ci fib]
+25.1 +5.3 28 +25 +25 комфорт 1012.4 1009.7 +26.3
15 17.06 Ю 3
{6}
20 км 8/0
[Ac trans Ci fib]
+15.8 +5.9 52 +15 +16 1012.7 1009.9
21 17.06 С 1
{5}
20 км 6/0
[Ac trans Ci fib]
+18.4 +12.1 67 +20 +25 1012.6 1009.9 +14.9
03 18.06 СВ 2
{5}
20 км 8/4 300 м
[Cu med, cong Ac trans Ci fib]
+20.0 +9.6 51 +22 +26 комфорт 1012.3 1009.6
09 18.06 Ю 4
{10}
20 км 9/4 300 м
[Cu med, cong Ac trans Ci fib]
+18.9 +7.6 48 +19 +20 1012.1 1009.4 +24.1
15 18.06 ЮВ 2
{6}
20 км 8/0
[Ac trans Ci fib]
+9.8 +7.2 84 +8 +8 1013.2 1010.4

 

Местоположение метеостанции Бухта Амбарчик (Чукотка, Россия): широта 69.62 долгота 162.30 высота над уровнем моря 23 м.

В архиве по умолчанию представлена погода в Бухте Амбарчик за последнюю неделю. Архивные данные за месяц целиком и за предыдущие месяцы, начиная с января 2011 года, Вы можете получить, выбрав интересующий диапазон дат из раскрывающегося списка и нажав кнопку "Ввод!".


*Определитесь, кто Вы:
робот инопланетянин человек

Внимание! Время в таблицах - всемирное. Для получения местного времени необходимо прибавить поправку, которая равна 12 ч.

Смотрите также архив погоды в соседних городах и на ближайших метеорологических станциях:

Погода в Черском (Якутия, Россия) (107 км)
Погода в Анюйске (Чукотка, Россия) (145 км)
Погода в Раучуе (Чукотка, Россия) (164 км)
Погода в Константиновской (Чукотка, Россия) (170 км)
Погода в Колымской (Якутия, Россия) (177 км)
Погода в Островном (Чукотка, Россия) (182 км)
Погода на Айон Острове (Чукотка, Россия) (218 км)
Погода в Билибино (Чукотка, Россия) (240 км)
Погода в Певеке (Чукотка, Россия) (305 км)
Погода в Андрюшкино (Якутия, Россия) (309 км)

Пояснения к столбцам:

Ветер - указаны скорость ветра в м/с - средняя за 10 мин, порывы в срок и между сроками (в фигурных скобках) и направление, откуда дует ветер: С - северный, СВ - северо-восточный, В - восточный, ЮВ - юго-восточный, Ю - южный, ЮЗ - юго-западный, З - западный, СЗ - северо-западный.
Видимость - горизонтальная дальность видимости в метрах или километрах. При видимости от 1 до 10 км при отсутствии осадков обычно наблюдается дымка, при ухудшении видимости до 1 км и менее - туман. В сухую погоду видимость может ухудшаться дымом, пылью или мглою.
Явления - указаны атмосферные явления, наблюдавшиеся в срок или в последний час перед сроком; фигурными скобками обозначены явления, наблюдавшиеся между сроками (за 1-3 часа до срока); квадратными скобками обозначены град или гололедные отложения с указанием их диаметра в мм.
Облачность - указаны через наклонную черту общая и нижняя облачность в баллах и высота нижней границы облаков в метрах; квадратными скобками обозначены формы облаков: Ci - перистые, Cs - перисто-слоистые, Cc - перисто-кучевые, Ac - высококучевые, As - высокослоистые, Sc - слоисто-кучевые, Ns - слоисто-дождевые, Cu - кучевые, Cb - кучево-дождевые. Подробнее классификацию облаков см. в Атласе облаков (PDF).
T - Температура воздуха - температура, измеренная на высоте 2 м над землей.
Td - Температура точки росы - температура, при понижении до которой содержащийся в воздухе водяной пар достигнет насыщения.
f - Относительная влажность воздуха - влажноcть воздуха, измеренная на высоте 2 м над землей.
Te - Эффективная температура - температура, которую ощущает одетый по сезону человек в тени. Характеристика душности погоды. При расчете учитывается влияние влажности воздуха и скорости ветра на теплоощущения человека.
Tes - Эффективная температура на солнце - температура, которую ощущает человек, с поправкой на солнечный нагрев. Характеристика знойности погоды. Зависит от высоты солнца над горизонтом, облачности и скорости ветра. Ночью, в пасмурную погоду, а также при ветре 12 м/с и более поправка равна нулю.
P - Атмосферное давление - приведенное к уровню моря атмосферное давление.
Po - Атмосферное давление - измеренное на уровне метеостанции атмосферное давление.
Tmin - Минимальная температура - минимум температуры воздуха на высоте 2 м над землей.
Tmax - Максимальная температура - максимум температуры воздуха на высоте 2 м над землей.
R - Количество осадков - Количество выпавших осадков за период времени, мм. При наведении курсора мыши на число - период времени, за который выпало указанное количество осадков.
R24 - Количество осадков - Количество выпавших осадков за 24 часа, мм.
S - Снежный покров - Высота снежного покрова, см. При наведении курсора мыши на число - состояние снежного покрова и степень покрытия местности в баллах.